EW0295 Weather Reports


Display with metric or nautical units.
time (UTC)temp
F
wind
direction
speed
MPH
gust
MPH
rain 1hr
in
rain 24hr
in
rain mn
in
humidity
%
barometer
mb
20260502180903 64 253 3.0 10.0 0.00 0.00 0.00 66 1012.7
20260502163603 70 240 7.0 16.0 0.00 0.00 0.00 38 1012.9
20260502162703 72 243 6.0 15.0 0.00 0.00 0.00 37 1012.8
20260502161803 73 245 7.0 19.0 0.00 0.00 0.00 38 1012.8
20260502160903 73 235 7.0 20.0 0.00 0.00 0.00 35 1012.8
20260502152019 74 244 6.0 14.0 0.00 0.00 0.00 33 1013.0
20260502150903 75 222 8.0 18.0 0.00 0.00 0.00 32 1013.1
20260502123603 75 197 6.0 15.0 0.00 0.00 0.00 37 1014.4
20260502122703 75 205 5.0 17.0 0.00 0.00 0.00 37 1014.5
20260502121803 75 214 6.0 16.0 0.00 0.00 0.00 39 1014.5
20260502121118 75 201 6.0 14.0 0.00 0.00 0.00 40 1014.6
20260502115403 74 216 5.0 15.0 0.00 0.00 0.00 40 1014.8
20260502114716 74 206 6.0 15.0 0.00 0.00 0.00 41 1015.0
20260502113603 74 207 6.0 13.0 0.00 0.00 0.00 42 1015.1
20260502112703 74 204 5.0 14.0 0.00 0.00 0.00 42 1015.3
20260502111803 73 204 7.0 16.0 0.00 0.00 0.00 42 1015.4
20260502110903 74 206 5.0 13.0 0.00 0.00 0.00 42 1015.4
20260502110003 73 199 6.0 14.0 0.00 0.00 0.00 43 1015.6
20260502105403 73 204 6.0 14.0 0.00 0.00 0.00 42 1015.6
20260502104503 73 209 6.0 18.0 0.00 0.00 0.00 42 1015.7
20260502103603 72 208 5.0 18.0 0.00 0.00 0.00 44 1015.7
20260502102703 72 200 5.0 16.0 0.00 0.00 0.00 43 1015.8
20260502101803 71 199 6.0 13.0 0.00 0.00 0.00 45 1015.9
20260502101117 71 207 6.0 12.0 0.00 0.00 0.00 46 1016.0
20260502090903 69 217 3.0 10.0 0.00 0.00 0.00 54 1016.4
20260502070903 62 200 4.0 10.0 0.00 0.00 0.00 66 1017.3
20260502070003 61 195 4.0 10.0 0.00 0.00 0.00 65 1017.4
20260502065403 61 195 3.0 9.0 0.00 0.00 0.00 66 1017.3
20260502064503 61 181 3.0 10.0 0.00 0.00 0.00 66 1017.3
20260502063603 60 209 3.0 11.0 0.00 0.00 0.00 67 1017.3
20260502062703 60 198 3.0 11.0 0.00 0.00 0.00 67 1017.4
20260502061803 60 206 2.0 7.0 0.00 0.00 0.00 68 1017.4
20260502060903 60 194 2.0 7.0 0.00 0.00 0.00 67 1017.4
20260502060003 59 178 3.0 6.0 0.00 0.00 0.00 68 1017.5
20260502055403 58 173 3.0 7.0 0.00 0.00 0.00 69 1017.5
20260502054503 58 170 2.0 5.0 0.00 0.00 0.00 69 1017.6
20260502053603 58 160 1.0 4.0 0.00 0.00 0.00 70 1017.7
20260502052703 57 0 0.0 3.0 0.00 0.00 0.00 72 1017.7
20260502051803 56 149 1.0 2.0 0.00 0.00 0.00 73 1017.7
20260502050903 55 0 0.0 2.0 0.00 0.00 0.00 74 1017.8
20260502050003 54 0 0.0 2.0 0.00 0.00 0.00 74 1017.8
20260502045403 54 0 0.0 2.0 0.00 0.00 0.00 75 1017.8
20260502044504 53 142 1.0 3.0 0.00 0.00 0.00 76 1017.9
20260502043603 52 140 1.0 3.0 0.00 0.00 0.00 77 1018.0
20260502042703 52 0 0.0 1.0 0.00 0.00 0.00 78 1017.9
20260502041803 51 0 0.0 3.0 0.00 0.00 0.00 79 1018.1
20260502040903 50 140 1.0 2.0 0.00 0.00 0.00 80 1018.2
20260502040218 50 0 0.0 3.0 0.00 0.00 0.00 80 1018.3
20260502035403 49 0 0.0 1.0 0.00 0.00 0.00 80 1018.4
20260502034503 49 0 0.0 0.0 0.00 0.00 0.00 80 1018.5
20260502033603 49 0 0.0 0.0 0.00 0.00 0.00 80 1018.6
20260502032703 49 0 0.0 0.0 0.00 0.00 0.00 80 1018.8
20260502031803 49 0 0.0 0.0 0.00 0.00 0.00 79 1018.8
20260502030903 50 0 0.0 0.0 0.00 0.00 0.00 78 1019.0
20260502030003 50 0 0.0 0.0 0.00 0.00 0.00 78 1019.2
20260502025403 51 0 0.0 0.0 0.00 0.00 0.00 77 1019.2
20260502024503 51 0 0.0 0.0 0.00 0.00 0.00 77 1019.3
20260502023603 51 0 0.0 1.0 0.00 0.00 0.00 77 1019.4
20260502022919 51 150 1.0 3.0 0.00 0.00 0.00 76 1019.4
20260502021803 52 157 1.0 3.0 0.00 0.00 0.00 76 1019.6
20260502020903 52 156 1.0 4.0 0.00 0.00 0.00 75 1019.7
20260502020003 52 162 2.0 5.0 0.00 0.00 0.00 75 1019.7
20260502015403 52 157 2.0 5.0 0.00 0.00 0.00 74 1019.8
20260502014503 53 160 2.0 5.0 0.00 0.00 0.00 74 1020.0
20260502013815 53 167 2.0 6.0 0.00 0.00 0.00 73 1020.0
20260502012703 53 167 3.0 6.0 0.00 0.00 0.00 73 1020.2
20260502011803 53 167 3.0 7.0 0.00 0.00 0.00 73 1020.3
20260502010903 53 160 3.0 6.0 0.00 0.00 0.00 73 1020.4
20260502010003 53 166 3.0 6.0 0.00 0.00 0.00 72 1020.5
20260502005403 53 163 3.0 5.0 0.00 0.00 0.00 72 1020.7
20260502004503 53 168 3.0 5.0 0.00 0.00 0.00 72 1020.7
20260502003603 54 163 3.0 5.0 0.00 0.00 0.00 72 1020.9
20260502002703 54 153 3.0 6.0 0.00 0.00 0.00 72 1021.0
20260502001803 54 161 2.0 7.0 0.00 0.00 0.00 71 1021.1
20260502000903 54 165 3.0 7.0 0.00 0.00 0.00 71 1021.3
20260502000003 54 167 2.0 6.0 0.00 0.00 0.00 71 1021.4
20260501235403 54 162 2.0 6.0 0.00 0.00 0.00 71 1021.4
20260501234503 53 156 2.0 5.0 0.00 0.00 0.00 71 1021.5
20260501233603 53 149 2.0 5.0 0.00 0.00 0.00 72 1021.6
20260501232918 53 144 1.0 3.0 0.00 0.00 0.00 72 1021.7
20260501231803 53 144 1.0 3.0 0.00 0.00 0.00 72 1021.8
20260501230903 53 0 0.0 2.0 0.00 0.00 0.00 72 1021.9
20260501230003 53 134 1.0 3.0 0.00 0.00 0.00 72 1022.0
20260501225403 53 141 1.0 2.0 0.00 0.00 0.00 72 1022.1
20260501224503 53 0 0.0 1.0 0.00 0.00 0.00 72 1022.1
20260501223603 53 0 0.0 3.0 0.00 0.00 0.00 72 1022.3
20260501222703 53 0 0.0 0.0 0.00 0.00 0.00 73 1022.4
20260501221803 53 0 0.0 0.0 0.00 0.00 0.00 74 1022.4
20260501220903 53 0 0.0 0.0 0.00 0.00 0.00 73 1022.5
20260501220003 53 0 0.0 0.0 0.00 0.00 0.00 74 1022.6
20260501215619 53 0 0.0 0.0 0.00 0.00 0.00 73 1022.6
20260501214503 54 0 0.0 0.0 0.00 0.00 0.00 73 1022.8
20260501213603 54 0 0.0 0.0 0.00 0.00 0.00 73 1022.9
20260501212703 55 0 0.0 0.0 0.00 0.00 0.00 73 1022.9
20260501211803 54 0 0.0 0.0 0.00 0.00 0.00 73 1022.9
20260501210903 55 0 0.0 0.0 0.00 0.00 0.00 72 1023.0
20260501210003 55 0 0.0 0.0 0.00 0.00 0.00 71 1023.0
20260501205403 56 0 0.0 0.0 0.00 0.00 0.00 71 1023.0
20260501204503 56 0 0.0 0.0 0.00 0.00 0.00 70 1023.1
20260501203603 56 0 0.0 0.0 0.00 0.00 0.00 70 1023.2
20260501202703 57 0 0.0 0.0 0.00 0.00 0.00 69 1023.2
20260501202016 57 0 0.0 0.0 0.00 0.00 0.00 69 1023.2
20260501200903 57 0 0.0 0.0 0.00 0.00 0.00 68 1023.4
20260501200003 58 153 1.0 3.0 0.00 0.00 0.00 68 1023.3
20260501195403 58 151 1.0 3.0 0.00 0.00 0.00 67 1023.4
20260501194503 58 149 1.0 3.0 0.00 0.00 0.00 67 1023.4
20260501193603 59 156 1.0 3.0 0.00 0.00 0.00 66 1023.4
20260501192703 59 162 1.0 4.0 0.00 0.00 0.00 65 1023.4
20260501191803 60 164 1.0 4.0 0.00 0.00 0.00 65 1023.5
20260501190903 60 157 2.0 6.0 0.00 0.00 0.00 64 1023.5
20260501190003 60 155 2.0 6.0 0.00 0.00 0.00 63 1023.5
20260501185403 61 150 3.0 8.0 0.00 0.00 0.00 62 1023.4
20260501184717 61 150 3.0 8.0 0.00 0.00 0.00 62 1023.4
20260501183603 62 146 4.0 9.0 0.00 0.00 0.00 60 1023.5
20260501182703 63 148 5.0 8.0 0.00 0.00 0.00 59 1023.5
20260501181803 64 150 4.0 8.0 0.00 0.00 0.00 58 1023.7